Track STARLINK-3652 now! 10-day predictions STARLINK-3652 is classified as:
1 51991U 22025AM 22187.25001157 .00038925 00000-0 24515-2 0 9993 2 51991 53.2194 305.5596 0001572 52.4862 131.8113 15.08822649 19492